User: anonymous   Login
Location: Fours
(44.3167°N, 6.7000°E)
Time: 19:47:44
(UTC+00:00)
Language:

Cosmos 2218 Rocket - Orbit

View from above orbital plane
View from above orbital plane
View from above satellite
View from above satellite

Ground track
Ground track

The orbit data is extracted from the following two-line orbital elements,

1 22208U 92073B   22017.30124664 -.00000044  00000-0 -62281-4 0  9996
2 22208  82.9170 217.3442 0035190  47.3251 125.3652 13.75174598466275
Epoch (UTC): 17 January 2022 07:13:47
Eccentricity: 0.0035190
inclination: 82.9170°
perigee height: 955 km
apogee height: 1007 km
right ascension of ascending node: 217.3442°
argument of perigee: 47.3251°
revolutions per day: 13.75174598
mean anomaly at epoch: 125.3652°
orbit number at epoch: 46627

The dashed part of the orbit path shows where the satellite is in the earth's shadow,  

DLR